Regional Weather Roundup
Issued by NWS

Home | Current Version | Previous Version | Text Only | Print | Product List | Glossary Off
Versions: 1 2 3 4 5 6 7 8 9 10 11 12 13 14 15 16 17 18 19 20 21 22 23 24 25 26 27 28 29 30 31 32 33 34 35 36 37 38 39 40 41 42 43 44 45 46 47 48 49 50

000
ASUS43 KMPX 042101
RWRMN
WEATHER ROUNDUP FOR MINNESOTA
NATIONAL WEATHER SERVICE TWIN CITIES/CHANHASSEN MN
300 PM CST WED MAR 04 2015


NOTE: "FAIR" INDICATES FEW OR NO CLOUDS BELOW 12,000 FEET WITH NO
SIGNIFICANT WEATHER AND/OR OBSTRUCTIONS TO VISIBILITY. N/A MEANS
CURRENT SKY AND/OR WEATHER CONDITIONS ARE NOT AVAILABLE.

MNZ060>063-068>070-042200-
   Twin Cities Metro

CITY           SKY/WX    TMP DP  RH WIND       PRES   REMARKS
TWIN CITIES    MOSUNNY   11  -6  46 NW20      30.24R WCI  -7
ST PAUL        MOSUNNY   12  -6  44 NW21G28   30.25R WCI  -7
CRYSTAL        MOSUNNY   10  -7  46 W15G24    30.23R WCI  -7
BLAINE         MOSUNNY   10  -6  48 NW18      30.22R WCI  -8
LAKEVILLE      SUNNY      9  -2  61 W20       30.23R WCI -11
EDEN PRAIRIE   SUNNY     11  -6  46 NW20G26   30.23R WCI  -7
SOUTH ST PAUL  SUNNY     13  -6  42 NW21G26   30.24R WCI  -6
LAKE ELMO      FAIR      12  -4  48 W16G23    30.23R WCI  -4
$$
MNZ001>005-007-008-013>017-022>024-027-028-042200-
   Northwest Minnesota

CITY           SKY/WX    TMP DP  RH WIND       PRES   REMARKS
BEMIDJI        CLOUDY    -2 -11  65 NW16      30.20R HAZE    WCI -22
HALLOCK        PTSUNNY    0  -9  65 NW18      30.31R WCI -22
ROSEAU         SUNNY      0  -9  65 W13G21    30.24R WCI -18
WARROAD        SUNNY      1 -11  55 W9        30.22R WCI -14
THIEF RVR FALL CLOUDY    -2 -11  65 NW15G23   30.27R WCI -22
CROOKSTON      SUNNY      1  -8  66 NW16G22   30.33R WCI -18
FOSSTON        MOSUNNY    1 -11  55 NW14      30.26R WCI -17
DETROIT LAKES  PTSUNNY    3  -6  66 NW17      30.26R HAZE    WCI -17
MOORHEAD       PTSUNNY    5  -9  51 NW9       30.33R WCI  -9
PARK RAPIDS    CLOUDY     1 -10  60 NW15G24   30.20R WCI -18
MAHNOMEN       MOCLDY     1  -6  69 NW16      30.25S WCI -18
$$
MNZ006-009>011-018-025>026-042200-
   North Central Minnesota

CITY           SKY/WX    TMP DP  RH WIND       PRES   REMARKS
BAUDETTE       CLOUDY    -1 -12  59 W13       30.19R WCI -19
FLAG ISLAND    SUNNY      1 -11  55 NW15      30.19R WCI -18
INTL FALLS     SUNNY      0 -15  49 W15       30.15S WCI -19
WASKISH        MOSUNNY    1  -9  60 W12       30.20R WCI -15
BIG FORK       MOSUNNY    3 -15  43 W10G17    30.16R WCI -12
LONGVILLE      SUNNY      1 -15  46 W7G16     30.19R WCI -11
GRAND RAPIDS   CLOUDY     1 -15  46 NW18G28   30.14R WCI -19
CRANE LAKE     SUNNY      1 -17  42 NW9G17    30.16R WCI -14
ORR            SUNNY      1 -15  46 NW12      30.10R WCI -15
COOK           MOSUNNY    1 -15  46 W13       30.13R WCI -16
WALKER         MOCLDY     0 -15  50 W16G25    30.19R WCI -20
$$
MNZ012-019>021-037-042200-
   Northeast Minnesota

CITY           SKY/WX    TMP DP  RH WIND       PRES   REMARKS
DULUTH         FAIR       3 -15  43 W14G24    30.10S WCI -15
ELY            SUNNY      0 -15  50 NW12G21   30.08R WCI -18
HIBBING        PTSUNNY    2 -13  49 NW15      30.13R WCI -17
EVELETH        SUNNY      3 -15  43 W10G22    30.12S WCI -12
DULUTH HARBOR  SUNNY      5  -9  51 W20       30.21R WCI -15
TWO HARBORS    SUNNY      7 -11  43 NW8G18    30.10S WCI  -6
SILVER BAY     SUNNY      7 -17  33 NW3       30.10R
GRAND MARAIS     N/A      7 -12  41 W8        30.13R WCI  -6
G MARAIS ARPRT MOSUNNY    0 -15  50 W8G17     29.98R HAZE    WCI -15
$$
MNZ029>031-032-039>041-046>048-054>057-064-042200-
   West Central Minnesota

CITY           SKY/WX    TMP DP  RH WIND       PRES   REMARKS
FERGUS FALLS   MOSUNNY    1  -9  60 N20       30.34R HAZE    WCI -20
WHEATON        MOSUNNY    1  -9  60 NW16      30.35S WCI -18
MORRIS         MOSUNNY    3  -8  60 NW21      30.30R WCI -18
ALEXANDRIA     MOSUNNY    1 -12  54 NW20      30.24R WCI -20
ELBOW LAKE     CLOUDY     1  -9  63 NW16G23   30.29R HAZE    WCI -18
WADENA         SUNNY      0 -11  60 NW16G25   30.23R WCI -21
GLENWOOD       MOSUNNY    1  -8  66 NW20      30.25S HAZE    WCI -20
APPLETON       SUNNY      7  -6  56 NW21      30.33S WCI -13
BENSON         LGT SNOW   5  -4  66 N21G28    30.30R WCI -16
ORTONVILLE     MOSUNNY    3  -9  55 NW14G20   30.33R WCI -15
MADISON        SUNNY      7  -6  56 NW21      30.33R WCI -13
WILLMAR        FAIR       7  -6  56 NW22G28   30.29R HAZE    WCI -14
$$
MNZ033>034-036-042>043-049>051-058-059-042200-
   Central Minnesota

CITY           SKY/WX    TMP DP  RH WIND       PRES   REMARKS
ST CLOUD       MOSUNNY    5 -10  50 NW22      30.23S WCI -16
SAUK CENTRE    CLOUDY     3 -10  56 NW16G23   30.25R WCI -17
PAYNESVILLE    PTSUNNY    1 -10  61 W17G24    30.26R WCI -20
AITKIN         SUNNY      7 -17  33 W8        30.17S WCI  -6
PINE RIVER     SUNNY      1 -13  51 W8G17     30.22R WCI -12
BRAINERD       PTSUNNY    3 -14  45 W15G23    30.21R WCI -16
STAPLES        SUNNY      1 -15  46 NW12      30.23R WCI -15
LONG PRAIRIE   CLOUDY     3  -9  55 W13       30.24R WCI -14
LITTLE FALLS   MOSUNNY    5 -13  43 NW12G21   30.24R WCI -11
LITCHFIELD     MOSUNNY    7  -6  56 NW14G20   30.26R WCI -10
BUFFALO        MOSUNNY    8  -8  48 W17       30.26R WCI -10
MAPLE LAKE     PTSUNNY    7  -4  59 W15G23    30.26R WCI -10
$$
MNZ037-044-045-052-053-042200-
   East Central Minnesota

CITY           SKY/WX    TMP DP  RH WIND       PRES   REMARKS
PRINCETON      SUNNY      7  -9  47 W17       30.22S WCI -12
MORA           SUNNY      7  -9  47 NW13G20   30.21S WCI  -9
CAMBRIDGE      MOSUNNY    9  -6  52 W18G26    30.21R WCI -10
RUSH CITY      PTSUNNY    9  -9  42 W10G23    30.21R WCI  -5
MOOSE LAKE     MOSUNNY    5 -13  43 NW9G17    30.16S WCI  -9
HINCKLEY       CLOUDY     7  -9  47 W14       30.19S WCI -10
CLOQUET        SUNNY      1 -17  42 NW14G20   30.13S WCI -17
MCGREGOR       SUNNY      5 -15  39 NW13G21   30.18R WCI -12
$$
MNZ071>073-080-081-089-090-097-098-042200-
   Southwest Minnesota

CITY           SKY/WX    TMP DP  RH WIND       PRES   REMARKS
MONTEVIDEO     PTSUNNY    7  -4  61 N15G25    30.33R WCI -11
GRANITE FALLS  PTSUNNY    7  -3  62 NW23      30.33R WCI -14
CANBY          PTSUNNY    7  -7  54 NW20G25   30.33R WCI -13
MARSHALL       CLOUDY     7  -8  51 NW20G26   30.31R WCI -13
REDWOOD FALLS  PTSUNNY    8  -3  61 NW17G24   30.29R WCI -10
OLIVIA         MOSUNNY    9   0  66 NW18G32   30.28R WCI -10
PIPESTONE      SUNNY      7  -6  56 N16G26    30.26R WCI -11
WINDOM         MOSUNNY   10   0  61 NW17G24   30.25R WCI  -7
WORTHINGTON    PTSUNNY   10   0  61 NW18      30.26R WCI  -8
JACKSON        PTSUNNY   14   3  62 NW18      30.24R WCI  -3
TRACY          MOSUNNY   10  -1  58 NW17G23   30.28R WCI  -7
SLAYTON        CLOUDY     9  -2  62 NW18      30.25R HAZE    WCI -10
$$
MNZ065>067-074>077-082>085-091>093-042200-
   South Central Minnesota

CITY           SKY/WX    TMP DP  RH WIND       PRES   REMARKS
MANKATO        MOSUNNY   12  -2  52 NW18G26   30.25R WCI  -5
NEW ULM        SUNNY      9  -4  56 NW22      30.28R WCI -11
ST JAMES       MOSUNNY   12   1  62 NW22G28   30.28R WCI  -7
FAIRMONT       CLOUDY    12   1  62 NW15      30.24R WCI  -4
GLENCOE        PTSUNNY   10  -1  58 W17G29    30.26R WCI  -7
FARIBAULT      MOSUNNY   10   0  61 W13G22    30.24R WCI  -5
OWATONNA       MOSUNNY   10   1  67 NW16G22   30.22S HAZE    WCI  -7
ALBERT LEA     PTSUNNY   12   7  79 NW7       30.22R HAZE    WCI   2
$$
MNZ078>079-086>088-094>096-042200-
   Southeast Minnesota

CITY           SKY/WX    TMP DP  RH WIND       PRES   REMARKS
ROCHESTER      MOSUNNY    9  -1  64 NW18      30.19R WCI -10
RED WING       SUNNY     12  -8  40 NW15      30.23R WCI  -4
STANTON        PTSUNNY   12   2  64 NW15      30.23R WCI  -4
DODGE CENTER   MOSUNNY   10   0  61 W16G22    30.19R WCI  -7
WINONA         MOSUNNY   16   0  48 NW17G24   30.24R WCI   0
AUSTIN         SUNNY     10   0  61 NW20      30.21R WCI  -8
PRESTON        MOSUNNY    8  -3  61 NW16      30.20S WCI  -9
$$
ABBREVIATIONS USED IN REMARKS
   TC - TEMPERATURES IN CELSIUS
  WCI - WIND CHILL INDEX
   HX - HEAT INDEX
  VSB - VISIBILITY
$$



USA.gov is the U.S. government's official web portal to all federal, state and local government web resources and services.